Location: �quirre
(50.4736°N, 2.2351°E)
Time: 07:49:23
(UTC+00:00)

Cosmos 1072 Rocket - Pass Details

Date: 07 August 2020
Orbit: 949 x 1007 km, 82.9° (Epoch: 26 September)

Event Time Altitude Azimuth Distance (km) Brightness Sun altitude
Exits shadow 00:39:12 46° 204° (SSW) 1,268 4.6 -22.5°
Maximum altitude 00:41:10 78° 281° (W) 979 4.4 -22.5°
Drops below altitude 10° 00:47:19 10° 8° (N) 2,687 7.9 -22.3°
Sets 00:49:49 0° 10° (N) 3,637 9.0 -22.2°
